This demonstration page uses our WeatherBlox Daily Observations layout. Learn more.

Left ArrowRight Arrow

34.02893, -84.19858

Hourly Observations for June 13, 2022

Temp ( °F °C ) Dew Point ( °F °C ) Humidity (%) Winds ( mph kmh ) Pressure ( in mb ) Visibility ( mi km ) Precip ( " mm )
12:53 am 00:53 Clear 78 25.6 69 20.6 74 74 Calm 29.93 1014 10 16 0.00 0.00
1:53 am 01:53 Clear 75 23.9 69 20.6 82 82 Calm 29.94 1014 10 16 0.00 0.00
2:53 am 02:53 Clear 73 22.8 69 20.6 87 87 Calm 29.95 1014 10 16 0.00 0.00
3:53 am 03:53 Clear 72 22.2 69 20.6 91 91 Calm 29.94 1014 10 16 0.00 0.00
4:53 am 04:53 Clear 71 21.7 69 20.6 94 94 Calm 29.95 1014 10 16 0.00 0.00
5:53 am 05:53 Clear 71 21.7 69 20.6 94 94 Calm 29.96 1015 9 14 0.00 0.00
6:53 am 06:53 Sunny 70 21.1 68 20 93 93 Calm 29.98 1015 7 11 0.00 0.00
7:53 am 07:53 Sunny 77 25 71 21.7 82 82 Calm 30.00 1016 10 16 0.00 0.00
8:53 am 08:53 Sunny 81 27.2 71 21.7 72 72 W 5 7 30.03 1017 10 16 0.00 0.00
9:53 am 09:53 Sunny 84 28.9 72 22.2 67 67 WSW 8 13 30.03 1017 10 16 0.00 0.00
10:53 am 10:53 Mostly Sunny 87 30.6 74 23.3 65 65 VRB 7 11 30.02 1017 10 16 0.00 0.00
11:53 am 11:53 Mostly Cloudy 89 31.7 74 23.3 61 61 W 9 15 30.02 1017 10 16 0.00 0.00
12:53 pm 12:53 Mostly Sunny 90 32.2 75 23.9 62 62 SW 7 11 30.01 1016 10 16 0.00 0.00
1:53 pm 13:53 Mostly Sunny 93 33.9 75 23.9 56 56 undefined N/A 29.99 1016 10 16 0.00 0.00
2:53 pm 14:53 Partly Cloudy 92 33.3 74 23.3 56 56 WSW 6 9 29.97 1015 10 16 0.00 0.00
3:53 pm 15:53 Mostly Cloudy 94 34.4 74 23.3 52 52 undefined N/A 29.96 1014 10 16 0.00 0.00
4:53 pm 16:53 Sunny 95 35 74 23.3 51 51 VRB 6 9 29.94 1014 10 16 0.00 0.00
5:53 pm 17:53 Sunny 94 34.4 73 22.8 51 51 W 9 15 29.94 1014 10 16 0.00 0.00
6:53 pm 18:53 Sunny 93 33.9 73 22.8 52 52 W 6 9 29.94 1014 10 16 0.00 0.00
7:53 pm 19:53 Partly Cloudy 90 32.2 73 22.8 58 58 WNW 7 11 29.96 1014 10 16 0.00 0.00
8:11 pm 20:11 Partly Cloudy with Nearby Thunderstorms 90 32.2 73 22.8 58 58 WNW 5 7 29.95 1014 10 16 0.00 0.00
8:34 pm 20:34 Mostly Sunny 89 31.7 74 23.3 61 61 W 5 7 29.96 1015 10 16 0.00 0.00
8:53 pm 20:53 Mostly Clear 88 31.1 74 23.3 63 63 W 5 7 29.97 1015 10 16 0.00 0.00
9:53 pm 21:53 Clear 87 30.6 74 23.3 65 65 W 5 7 29.98 1015 10 16 0.00 0.00
10:53 pm 22:53 Clear 86 30 74 23.3 67 67 WNW 5 7 29.98 1015 10 16 0.00 0.00
11:53 pm 23:53 Clear 82 27.8 74 23.3 77 77 WSW 3 6 29.98 1015 10 16 0.00 0.00

Powered by AerisWeather